Location: Qu�bec
(46.8000°N, 71.2500°W)
Time: 12:58:40
(UTC-05:00)

N. Korean satellite - Visible Passes

Search period start: 12 December 2017 00:00
Search period end: 22 December 2017 00:00
Orbit: 461 x 513 km, 97.2° (Epoch: 11 December)

Date Brightness Start Highest point End Pass type
(mag) Time Alt. Az. Time Alt. Az. Time Alt. Az.
12 Dec 6.9 06:33:01 10° NNE 06:36:47 75° E 06:40:27 10° S visible
12 Dec 6.9 17:11:48 10° SE 17:15:20 43° ENE 17:18:55 10° N visible
12 Dec 9.8 18:46:49 10° SW 18:49:04 15° W 18:51:21 10° NW visible
13 Dec 8.3 06:09:38 10° NNE 06:13:10 38° E 06:16:37 10° SSE visible
13 Dec 7.7 16:48:52 10° ESE 16:51:55 24° ENE 16:55:00 10° NNE visible
13 Dec 8.8 18:22:08 10° SSW 18:25:20 27° W 18:28:35 10° NW visible
14 Dec 9.5 05:46:34 10° NE 05:49:28 21° E 05:52:19 10° SE visible
14 Dec 7.5 17:58:03 10° S 18:01:40 51° W 18:05:22 10° NNW visible
15 Dec 10.1 05:24:18 10° ENE 05:25:41 12° E 05:27:04 10° ESE visible
15 Dec 6.5 17:34:22 10° SSE 17:38:06 83° ENE 17:41:53 10° N visible
16 Dec 6.9 06:32:19 10° NNE 06:36:02 74° ESE 06:39:41 10° S visible
16 Dec 7.0 17:11:03 10° SE 17:14:35 43° ENE 17:18:11 10° N visible
16 Dec 9.7 18:46:01 10° SW 18:48:19 16° W 18:50:39 10° NW visible
17 Dec 8.3 06:08:56 10° NNE 06:12:25 38° E 06:15:49 10° SSE visible
17 Dec 7.7 16:48:06 10° ESE 16:51:10 24° ENE 16:54:16 10° NNE visible
17 Dec 8.8 18:21:21 10° SSW 18:24:35 27° W 18:27:51 10° NW visible
18 Dec 9.5 05:45:52 10° NE 05:48:42 21° E 05:51:29 10° SE visible
18 Dec 7.5 17:57:15 10° S 18:00:55 52° W 18:04:37 10° NNW visible
19 Dec 10.1 05:23:40 10° ENE 05:24:54 11° E 05:26:08 10° ESE visible
19 Dec 6.5 17:33:35 10° SSE 17:37:19 82° ENE 17:41:07 10° N visible
20 Dec 6.9 06:31:33 10° NNE 06:35:15 73° ESE 06:38:51 10° S visible
20 Dec 7.0 17:10:15 10° SE 17:13:49 42° ENE 17:17:24 10° N visible
20 Dec 9.7 18:45:11 10° SW 18:47:32 16° W 18:49:54 10° NW visible
21 Dec 8.3 06:08:10 10° NNE 06:11:36 37° E 06:14:58 10° SSE visible
21 Dec 7.8 16:47:19 10° ESE 16:50:22 24° ENE 16:53:27 10° NNE visible
21 Dec 8.8 18:20:31 10° SSW 18:23:47 28° W 18:27:04 10° NW visible
